Nampa, ID

4:12 AM MST on November 21, 2017 (GMT -0700)
Nampa

Weather History for KMAN - May, 2013

Change the Weather History Date:

Saturday, May 25, 2013

  Actual Average (KBOI) Record (KBOI)
Temperature  
Mean Temperature 60 °F -  
Max Temperature 71 °F 74 °F 96 °F (1961)
Min Temperature 50 °F 47 °F 30 °F (1975)
Degree Days  
Heating Degree Days 4    
Growing Degree Days 10 (Base 50)    
Moisture  
Dew Point 32 °F    
Average Humidity 34    
Maximum Humidity 50    
Minimum Humidity 20    
Precipitation  
Precipitation 0.00 in - - ()
Sea Level Pressure  
Sea Level Pressure 29.92 in    
Wind  
Wind Speed 10 mph (NNW)    
Max Wind Speed 14 mph    
Max Gust Speed 18 mph    
Visibility 10 miles    
Events      
Averages and records for this station are not official NWS values.
T = Trace of Precipitation, MM = Missing Value Source: NWS Daily Summary

Daily Weather History Graph

Daily Weather History Graph

Search for Another Location

Airport or City:

Trip Planner

Search our weather history database for the weather conditions in past years. The results will help you decide how hot, cold, wet, or windy it might be!

Date:

Astronomy

May. 25, 2013 Rise Set
Actual Time 6:11 AM MDT 9:14 PM MDT
Civil Twilight 5:37 AM MDT 9:49 PM MDT
Nautical Twilight 4:53 AM MDT 10:33 PM MDT
Astronomical Twilight 4:01 AM MDT 11:25 PM MDT
Moon 10:07 PM MDT (5/25) 6:43 AM MDT (5/25)
Length of Visible Light 16h 11m
Length of Day
15h 02m
Waxing Gibbous, 99% of the Moon is Illuminated
May 25
Waxing Gibbous
May 31
Last Quarter
Jun 8
New
Jun 16
First Quarter
Jun 23
Full

Hourly Weather History & Observations

Time (MDT) Temp. Dew Point Humidity Pressure Visibility Wind Dir Wind Speed Gust Speed Precip Events Conditions
12:15 AM 57.2 °F 32.0 °F 38% 29.92 in 10.0 mi NW 10.4 mph - N/A   Clear
12:35 AM 55.4 °F 32.0 °F 41% 29.92 in 10.0 mi NW 9.2 mph - N/A   Clear
12:55 AM 55.4 °F 32.0 °F 41% 29.92 in 10.0 mi NW 11.5 mph - N/A   Clear
1:15 AM 55.4 °F 32.0 °F 41% 29.91 in 10.0 mi NW 11.5 mph 16.1 mph N/A   Clear
1:35 AM 55.4 °F 32.0 °F 41% 29.91 in 10.0 mi NW 10.4 mph - N/A   Clear
1:55 AM 55.4 °F 32.0 °F 41% 29.91 in 10.0 mi WNW 13.8 mph - N/A   Clear
2:15 AM 53.6 °F 32.0 °F 44% 29.91 in 10.0 mi WNW 11.5 mph - N/A   Clear
2:35 AM 53.6 °F 32.0 °F 44% 29.90 in 10.0 mi West 10.4 mph - N/A   Clear
2:55 AM 53.6 °F 32.0 °F 44% 29.91 in 10.0 mi WNW 11.5 mph - N/A   Clear
3:15 AM 51.8 °F 32.0 °F 47% 29.91 in 10.0 mi WNW 12.7 mph 16.1 mph N/A   Clear
3:35 AM 51.8 °F 32.0 °F 47% 29.91 in 10.0 mi WNW 12.7 mph - N/A   Clear
3:55 AM 51.8 °F 32.0 °F 47% 29.91 in 10.0 mi WNW 11.5 mph - N/A   Clear
4:15 AM 51.8 °F 32.0 °F 47% 29.92 in 10.0 mi WNW 13.8 mph - N/A   Partly Cloudy
4:35 AM 51.8 °F 32.0 °F 47% 29.92 in 10.0 mi WNW 13.8 mph - N/A   Clear
4:55 AM 50.0 °F 32.0 °F 50% 29.93 in 10.0 mi WNW 12.7 mph - N/A   Clear
5:15 AM 50.0 °F 32.0 °F 50% 29.93 in 10.0 mi WNW 10.4 mph - N/A   Partly Cloudy
5:35 AM 50.0 °F 32.0 °F 50% 29.94 in 10.0 mi WNW 12.7 mph - N/A   Scattered Clouds
5:55 AM 50.0 °F 32.0 °F 50% 29.94 in 10.0 mi WNW 12.7 mph 18.4 mph N/A   Scattered Clouds
6:15 AM 50.0 °F 32.0 °F 50% 29.95 in 10.0 mi WNW 10.4 mph - N/A   Mostly Cloudy
6:35 AM 51.8 °F 32.0 °F 47% 29.95 in 10.0 mi WNW 12.7 mph - N/A   Mostly Cloudy
6:55 AM 51.8 °F 32.0 °F 47% 29.96 in 10.0 mi NW 11.5 mph 17.3 mph N/A   Scattered Clouds
7:15 AM 51.8 °F 32.0 °F 47% 29.96 in 10.0 mi NW 11.5 mph - N/A   Partly Cloudy
7:35 AM 51.8 °F 32.0 °F 47% 29.96 in 10.0 mi NW 10.4 mph - N/A   Clear
7:55 AM 53.6 °F 32.0 °F 44% 29.96 in 10.0 mi NW 11.5 mph - N/A   Scattered Clouds
8:15 AM 55.4 °F 33.8 °F 44% 29.96 in 10.0 mi NNW 6.9 mph - N/A   Partly Cloudy
8:35 AM 55.4 °F 33.8 °F 44% 29.96 in 10.0 mi NW 8.1 mph - N/A   Partly Cloudy
8:55 AM 57.2 °F 33.8 °F 41% 29.96 in 10.0 mi NW 9.2 mph - N/A   Clear
9:15 AM 57.2 °F 33.8 °F 41% 29.96 in 10.0 mi NNW 12.7 mph - N/A   Partly Cloudy
9:35 AM 57.2 °F 32.0 °F 38% 29.96 in 10.0 mi NNW 11.5 mph 17.3 mph N/A   Mostly Cloudy
9:55 AM 59.0 °F 33.8 °F 39% 29.96 in 10.0 mi NW 11.5 mph 17.3 mph N/A   Mostly Cloudy
10:15 AM 59.0 °F 32.0 °F 36% 29.96 in 10.0 mi NW 12.7 mph 17.3 mph N/A   Partly Cloudy
10:35 AM 60.8 °F 32.0 °F 34% 29.96 in 10.0 mi NNW 11.5 mph - N/A   Clear
10:55 AM 62.6 °F 33.8 °F 34% 29.96 in 10.0 mi WNW 9.2 mph 17.3 mph N/A   Clear
11:15 AM 62.6 °F 32.0 °F 32% 29.96 in 10.0 mi NW 11.5 mph 18.4 mph N/A   Clear
11:35 AM 62.6 °F 32.0 °F 32% 29.96 in 10.0 mi WNW 12.7 mph 16.1 mph N/A   Clear
11:55 AM 64.4 °F 33.8 °F 32% 29.96 in 10.0 mi NW 8.1 mph - N/A   Clear
12:15 PM 64.4 °F 32.0 °F 30% 29.96 in 10.0 mi North 9.2 mph - N/A   Clear
12:35 PM 64.4 °F 32.0 °F 30% 29.96 in 10.0 mi WNW 8.1 mph - N/A   Clear
12:55 PM 66.2 °F 32.0 °F 28% 29.96 in 10.0 mi West 4.6 mph - N/A   Clear
1:15 PM 66.2 °F 32.0 °F 28% 29.96 in 10.0 mi North 8.1 mph - N/A   Clear
1:35 PM 66.2 °F 32.0 °F 28% 29.96 in 10.0 mi North 6.9 mph - N/A   Clear
1:55 PM 66.2 °F 32.0 °F 28% 29.95 in 10.0 mi NE 9.2 mph 17.3 mph N/A   Clear
2:15 PM 68.0 °F 32.0 °F 26% 29.94 in 10.0 mi North 12.7 mph 16.1 mph N/A   Clear
2:35 PM 69.8 °F 32.0 °F 25% 29.94 in 10.0 mi NNW 10.4 mph 17.3 mph N/A   Clear
2:55 PM 69.8 °F 32.0 °F 25% 29.94 in 10.0 mi North 11.5 mph 17.3 mph N/A   Clear
3:15 PM 69.8 °F 32.0 °F 25% 29.94 in 10.0 mi NE 9.2 mph - N/A   Clear
3:35 PM 69.8 °F 32.0 °F 25% 29.94 in 10.0 mi North 8.1 mph - N/A   Clear
3:55 PM 69.8 °F 32.0 °F 25% 29.93 in 10.0 mi North 6.9 mph - N/A   Clear
4:15 PM 71.6 °F 32.0 °F 23% 29.93 in 10.0 mi North 9.2 mph 16.1 mph N/A   Clear
4:35 PM 71.6 °F 30.2 °F 22% 29.92 in 10.0 mi NNW 6.9 mph - N/A   Clear
4:55 PM 71.6 °F 30.2 °F 22% 29.92 in 10.0 mi North 5.8 mph - N/A   Clear
5:15 PM 71.6 °F 30.2 °F 22% 29.91 in 10.0 mi NNE 8.1 mph - N/A   Clear
5:35 PM 71.6 °F 28.4 °F 20% 29.91 in 10.0 mi North 5.8 mph - N/A   Clear
5:55 PM 71.6 °F 28.4 °F 20% 29.90 in 10.0 mi NNE 9.2 mph - N/A   Clear
6:15 PM 71.6 °F 28.4 °F 20% 29.90 in 10.0 mi NE 6.9 mph - N/A   Clear
6:35 PM 71.6 °F 28.4 °F 20% 29.89 in 10.0 mi North 8.1 mph - N/A   Clear
6:55 PM 71.6 °F 28.4 °F 20% 29.89 in 10.0 mi North 6.9 mph - N/A   Clear
7:15 PM 71.6 °F 28.4 °F 20% 29.88 in 10.0 mi NNE 10.4 mph - N/A   Clear
7:35 PM 71.6 °F 28.4 °F 20% 29.88 in 10.0 mi NNE 10.4 mph - N/A   Clear
7:55 PM 71.6 °F 28.4 °F 20% 29.88 in 10.0 mi NNE 6.9 mph - N/A   Clear
8:15 PM 69.8 °F 26.6 °F 20% 29.88 in 10.0 mi North 5.8 mph - N/A   Clear
8:35 PM 69.8 °F 28.4 °F 21% 29.88 in 10.0 mi NNW 3.5 mph - N/A   Clear
8:55 PM 68.0 °F 28.4 °F 23% 29.87 in 10.0 mi NNW 3.5 mph - N/A   Clear
9:15 PM 68.0 °F 30.2 °F 24% 29.87 in 10.0 mi Calm Calm - N/A   Clear
9:35 PM 68.0 °F 30.2 °F 24% 29.87 in 10.0 mi NNW 3.5 mph - N/A   Clear
9:55 PM 66.2 °F 32.0 °F 28% 29.87 in 10.0 mi Calm Calm - N/A   Clear
10:15 PM 64.4 °F 32.0 °F 30% 29.87 in 10.0 mi North 3.5 mph - N/A   Clear
10:35 PM 64.4 °F 30.2 °F 28% 29.87 in 10.0 mi North 3.5 mph - N/A   Clear
10:55 PM 64.4 °F 30.2 °F 28% 29.87 in 10.0 mi North 3.5 mph - N/A   Clear
11:15 PM 59.0 °F 35.6 °F 42% 29.86 in 10.0 mi Calm Calm - N/A   Clear
11:35 PM 55.4 °F 35.6 °F 47% 29.86 in 10.0 mi Calm Calm - N/A   Clear
11:55 PM 57.2 °F 35.6 °F 44% 29.86 in 10.0 mi Calm Calm - N/A   Clear